When you browse on this site, cookies collect data to enhance your experience and personalize the content and advertising you see.
Visit our Privacy Policy to learn more. By continuing to use the site, you agree to this use of cookies and data.
  • In Germany
  • List of Countries
  • For 7 days
  • Water Temperature
  • Weather Map
  • Weather Widgets
  • user-avatar
    Login

    Hourly Weather Baraki Barak

    Today, 19 November, Tuesday

    Time Temperature Precipitation Wind Pressure Humidity
    00:00 +6°C° 0 mm 1 mps 597 mmHg 37%
    01:00 +6°C° 0 mm 1 mps 597 mmHg 37%
    02:00 +6°C° 0 mm 1 mps 597 mmHg 37%
    03:00 +5°C° 0 mm 1 mps 596 mmHg 37%
    04:00 +5°C° 0 mm 1 mps 596 mmHg 37%
    05:00 +5°C° 0 mm 1 mps 596 mmHg 35%
    06:00 +5°C° 0 mm 1 mps 596 mmHg 35%
    07:00 +6°C° 0 mm 1 mps 597 mmHg 34%
    08:00 +6°C° 0 mm 1 mps 597 mmHg 34%
    09:00 +7°C° 0 mm 1 mps 598 mmHg 29%
    10:00 +9°C° 0 mm 1 mps 598 mmHg 25%
    11:00 +10°C° 0 mm 1 mps 598 mmHg 20%
    12:00 +11°C° 0 mm 1 mps 598 mmHg 20%
    13:00 +11°C° 0 mm 0 mps 598 mmHg 19%
    14:00 +11°C° 0 mm 0 mps 598 mmHg 18%
    15:00 +11°C° 0 mm 0 mps 598 mmHg 22%
    16:00 +10°C° 0 mm 0 mps 597 mmHg 26%
    17:00 +9°C° 0 mm 0 mps 597 mmHg 30%
    18:00 +9°C° 0 mm 0 mps 597 mmHg 31%
    19:00 +8°C° 0 mm 0 mps 597 mmHg 32%
    20:00 +8°C° 0 mm 0 mps 597 mmHg 33%
    21:00 +7°C° 0 mm 0 mps 597 mmHg 33%
    22:00 +7°C° 0 mm 0 mps 596 mmHg 33%
    23:00 +6°C° 0 mm 0 mps 596 mmHg 33%

    Tomorrow, 20 November, Wednesday

    Time Temperature Precipitation Wind Pressure Humidity
    00:00 +6°C° 0 mm 0 mps 596 mmHg 34%
    01:00 +5°C° 0 mm 0 mps 596 mmHg 35%
    02:00 +5°C° 0 mm 0 mps 595 mmHg 35%
    03:00 +5°C° 0 mm 0 mps 595 mmHg 36%
    04:00 +4°C° 0 mm 0 mps 595 mmHg 36%
    05:00 +4°C° 0 mm 0 mps 595 mmHg 37%
    06:00 +5°C° 0 mm 0 mps 595 mmHg 37%
    07:00 +5°C° 0 mm 0 mps 596 mmHg 36%
    08:00 +5°C° 0 mm 0 mps 596 mmHg 36%
    09:00 +7°C° 0 mm 0 mps 597 mmHg 32%
    10:00 +8°C° 0 mm 0 mps 597 mmHg 27%
    11:00 +9°C° 0 mm 0 mps 597 mmHg 23%
    12:00 +10°C° 0 mm 0 mps 597 mmHg 23%
    13:00 +11°C° 0 mm 1 mps 597 mmHg 22%
    14:00 +12°C° 0 mm 1 mps 597 mmHg 22%
    15:00 +12°C° 0 mm 1 mps 597 mmHg 25%
    16:00 +11°C° 0 mm 1 mps 596 mmHg 29%
    17:00 +11°C° 0 mm 1 mps 596 mmHg 32%
    18:00 +9°C° 0.3 mm 1 mps 596 mmHg 47%
    19:00 +8°C° 0.3 mm 1 mps 596 mmHg 62%
    20:00 +6°C° 0.3 mm 1 mps 597 mmHg 76%
    21:00 +6°C° 0.9 mm 1 mps 597 mmHg 83%
    22:00 +5°C° 0.9 mm 1 mps 596 mmHg 89%
    23:00 +4°C° 0.9 mm 1 mps 596 mmHg 96%

    Day after tomorrow, 21 November, Thursday

    Time Temperature Precipitation Wind Pressure Humidity
    00:00 +4°C° 0.5 mm 1 mps 597 mmHg 96%
    01:00 +4°C° 0.5 mm 1 mps 597 mmHg 96%
    02:00 +5°C° 0.5 mm 1 mps 597 mmHg 96%
    03:00 +5°C° 0.3 mm 1 mps 596 mmHg 96%
    04:00 +3°C° 0.3 mm 2 mps 596 mmHg 96%
    05:00 +3°C° 0.3 mm 2 mps 596 mmHg 96%
    06:00 +4°C° 0.2 mm 2 mps 596 mmHg 95%
    07:00 +4°C° 0.2 mm 2 mps 596 mmHg 94%
    08:00 +4°C° 0.2 mm 2 mps 597 mmHg 93%
    09:00 +4°C° 0.5 mm 2 mps 597 mmHg 94%
    10:00 +5°C° 0.5 mm 1 mps 597 mmHg 95%
    11:00 +5°C° 0.5 mm 1 mps 597 mmHg 95%
    12:00 +4°C° 0.9 mm 1 mps 596 mmHg 96%
    13:00 +4°C° 0.9 mm 1 mps 596 mmHg 96%
    14:00 +4°C° 0.9 mm 1 mps 596 mmHg 97%
    15:00 +4°C° 0.5 mm 1 mps 596 mmHg 97%
    16:00 +4°C° 0.5 mm 1 mps 596 mmHg 97%
    17:00 +5°C° 0.5 mm 1 mps 596 mmHg 97%
    18:00 +5°C° 0.3 mm 1 mps 596 mmHg 96%
    19:00 +5°C° 0.3 mm 1 mps 596 mmHg 96%
    20:00 +5°C° 0.3 mm 1 mps 597 mmHg 95%
    21:00 +5°C° 0.9 mm 1 mps 596 mmHg 96%
    22:00 +5°C° 0.9 mm 1 mps 596 mmHg 96%
    23:00 +5°C° 0.9 mm 1 mps 596 mmHg 97%

    22 November, Friday

    Time Temperature Precipitation Wind Pressure Humidity
    00:00 +5°C° 1.3 mm 1 mps 596 mmHg 97%
    01:00 +4°C° 1.3 mm 1 mps 596 mmHg 97%
    02:00 +3°C° 1.3 mm 2 mps 596 mmHg 97%
    03:00 +4°C° 1.5 mm 1 mps 596 mmHg 97%
    04:00 +4°C° 1.5 mm 1 mps 595 mmHg 97%
    05:00 +4°C° 1.5 mm 1 mps 595 mmHg 97%
    06:00 +4°C° 0.4 mm 1 mps 595 mmHg 96%
    07:00 +4°C° 0.4 mm 1 mps 596 mmHg 95%
    08:00 +4°C° 0.4 mm 1 mps 596 mmHg 93%
    09:00 +5°C° 0.4 mm 1 mps 596 mmHg 94%
    10:00 +5°C° 0.4 mm 1 mps 596 mmHg 94%
    11:00 +5°C° 0.4 mm 1 mps 596 mmHg 95%
    12:00 +6°C° 0.1 mm 1 mps 596 mmHg 92%
    13:00 +6°C° 0.1 mm 1 mps 596 mmHg 90%
    14:00 +6°C° 0.1 mm 1 mps 596 mmHg 88%
    15:00 +6°C° 0.1 mm 1 mps 596 mmHg 88%
    16:00 +6°C° 0.1 mm 1 mps 596 mmHg 88%
    17:00 +6°C° 0.1 mm 1 mps 596 mmHg 87%
    18:00 +5°C° 0.1 mm 1 mps 596 mmHg 87%
    19:00 +5°C° 0.1 mm 1 mps 596 mmHg 86%
    20:00 +5°C° 0.1 mm 1 mps 597 mmHg 86%
    21:00 +4°C° 0 mm 1 mps 597 mmHg 86%
    22:00 +4°C° 0 mm 1 mps 597 mmHg 85%
    23:00 +4°C° 0 mm 1 mps 597 mmHg 85%

    23 November, Saturday

    Time Temperature Precipitation Wind Pressure Humidity
    00:00 +4°C° 0 mm 1 mps 597 mmHg 84%
    01:00 +4°C° 0 mm 1 mps 597 mmHg 83%
    02:00 +3°C° 0 mm 1 mps 597 mmHg 82%
    03:00 +3°C° 0 mm 1 mps 597 mmHg 80%
    04:00 +3°C° 0 mm 1 mps 597 mmHg 78%
    05:00 +3°C° 0 mm 1 mps 597 mmHg 77%
    06:00 +2°C° 0 mm 1 mps 597 mmHg 75%
    07:00 +2°C° 0 mm 1 mps 597 mmHg 74%
    08:00 +2°C° 0 mm 1 mps 597 mmHg 72%
    09:00 +3°C° 0 mm 1 mps 597 mmHg 70%
    10:00 +4°C° 0 mm 1 mps 597 mmHg 68%
    11:00 +4°C° 0 mm 1 mps 598 mmHg 66%
    12:00 +5°C° 0 mm 1 mps 597 mmHg 65%
    13:00 +5°C° 0 mm 1 mps 597 mmHg 64%
    14:00 +6°C° 0 mm 1 mps 596 mmHg 64%
    15:00 +5°C° 0 mm 1 mps 596 mmHg 64%
    16:00 +5°C° 0 mm 1 mps 596 mmHg 65%
    17:00 +4°C° 0 mm 1 mps 596 mmHg 66%
    18:00 +4°C° 0 mm 1 mps 596 mmHg 66%
    19:00 +3°C° 0 mm 1 mps 596 mmHg 67%
    20:00 +3°C° 0 mm 1 mps 597 mmHg 67%
    21:00 +3°C° 0 mm 1 mps 597 mmHg 67%
    22:00 +2°C° 0 mm 1 mps 597 mmHg 67%
    23:00 +2°C° 0 mm 1 mps 597 mmHg 66%

    24 November, Sunday

    Time Temperature Precipitation Wind Pressure Humidity
    00:00 +2°C° 0 mm 1 mps 596 mmHg 66%
    01:00 +2°C° 0 mm 1 mps 596 mmHg 67%
    02:00 +1°C° 0 mm 1 mps 596 mmHg 67%
    03:00 +1°C° 0 mm 1 mps 596 mmHg 67%
    04:00 0°C° 0 mm 1 mps 595 mmHg 66%
    05:00 0°C° 0 mm 1 mps 595 mmHg 66%
    06:00 0°C° 0 mm 1 mps 595 mmHg 65%
    07:00 0°C° 0 mm 1 mps 596 mmHg 64%
    08:00 0°C° 0 mm 1 mps 596 mmHg 62%
    09:00 +1°C° 0 mm 1 mps 596 mmHg 60%
    10:00 +2°C° 0 mm 1 mps 596 mmHg 58%
    11:00 +3°C° 0 mm 1 mps 596 mmHg 55%
    12:00 +4°C° 0 mm 1 mps 596 mmHg 55%
    13:00 +5°C° 0 mm 1 mps 596 mmHg 55%
    14:00 +5°C° 0 mm 1 mps 595 mmHg 55%
    15:00 +5°C° 0 mm 1 mps 595 mmHg 56%
    16:00 +4°C° 0 mm 1 mps 595 mmHg 57%
    17:00 +4°C° 0 mm 1 mps 595 mmHg 58%
    18:00 +3°C° 0 mm 1 mps 595 mmHg 58%
    19:00 +3°C° 0 mm 1 mps 596 mmHg 59%
    20:00 +2°C° 0 mm 1 mps 596 mmHg 60%
    21:00 +2°C° 0 mm 1 mps 596 mmHg 58%
    22:00 +2°C° 0 mm 1 mps 596 mmHg 57%
    23:00 +2°C° 0 mm 1 mps 596 mmHg 56%
    Show more